Regional Weather Roundup
Issued by NWS Sterling, VA

Home | Current Version | Previous Version | Text Only | Print | Product List | Glossary On
Versions: 1 2 3 4 5 6 7 8 9 10 11 12 13 14 15 16 17 18 19 20 21 22 23 24 25 26 27 28 29 30 31 32 33 34 35 36 37 38 39 40 41 42 43 44 45 46 47 48 49 50
000
ASUS41 KLWX 310511
RWRLWX

REGIONAL WEATHER ROUNDUP
NATIONAL WEATHER SERVICE BALTIMORE MD/WASHINGTON DC
100 AM EDT SUN JUL 31 2016

Note: "FAIR" indicates few or no clouds below 12,000 feet
with no significant weather and/or obstructions to visibility.
 TC=TEMPERATURE CELSIUS

 * =Non NWS site. Station does not report precipitation (e.g. rain,
    snow, etc.), thunder, or fog.

DCZ001-MDZ009-015-VAZ040>042-051-053>054-310600-
WASHINGTON METRO

CITY           SKY/WX    TMP DP  RH WIND       PRES   REMARKS
WASHINGTON NAT MOCLDY    76  72  87 CALM      29.98S
DULLES         MOCLDY    72  71  97 E3        29.98F
ANDREWS AFB    CLOUDY    73  72  94 SE2       29.97F
FT BELVOIR     CLOUDY    73  72  94 CALM      29.96F
LEESBURG*      MOCLDY    72  72 100 S3        29.99S
MANASSAS*      CLOUDY    73  72  94 CALM      29.97F
GAITHERSBURG*  CLOUDY    70  66  88 CALM      30.03S

$$

MDZ006>007-011-014-310600-
BALTIMORE METRO

CITY           SKY/WX    TMP DP  RH WIND       PRES   REMARKS
BWI AIRPORT    CLOUDY    73  71  93 CALM      29.97F
MD SCIENCE CTR   N/A     74  71  91 MISG      29.99S
MARTIN STATE   CLOUDY    73  73 100 CALM      30.00F
ANNAPOLIS      CLOUDY    77  74  90 CALM      29.96F
FORT MEADE*    CLOUDY    70  70 100 CALM      30.00F

$$

MDZ012-015-019>023-310600-
MARYLAND EASTERN SHORE

CITY           SKY/WX    TMP DP  RH WIND       PRES   REMARKS
OCEAN CITY     CLOUDY    78  74  87 CALM      29.98F
SALISBURY      NOT AVBL
BAY BRIDGE AP* MOCLDY    73  73 100 CALM      29.97S
CAMBRIDGE*     CLOUDY    73  72  94 SE5       29.96F
EASTON*        CLOUDY    76  76 100 SE3       30.00F

$$

MDZ017>025-310600-
SOUTHERN MARYLAND

CITY           SKY/WX    TMP DP  RH WIND       PRES   REMARKS
PATUXENT RIVER NOT AVBL
ST INIGOES     CLOUDY    78  75  90 CALM      29.96F
LEONARDTOWN*   CLOUDY    75  72  88 CALM      29.98R

$$

MDZ003>005-310600-
NORTH CENTRAL MARYLAND

CITY           SKY/WX    TMP DP  RH WIND       PRES   REMARKS
FREDERICK*     CLOUDY    70  70 100 CALM      30.01S
HAGERSTOWN APT CLOUDY    73  70  90 CALM      29.98S

$$

MDZ501>502-310600-
WESTERN MARYLAND

CITY           SKY/WX    TMP DP  RH WIND       PRES   REMARKS
OAKLAND*       CLOUDY    63  61  94 SW7       30.08F
CUMBERLAND*    CLOUDY    72  72 100 SW5       30.03S

$$

VAZ025>031-310600-
SHENANDOAH VALLEY

CITY           SKY/WX    TMP DP  RH WIND       PRES   REMARKS
WINCHESTER*    FAIR      72  70  94 CALM      30.00R
FRONT ROYAL*   FAIR      70  70 100 CALM      29.99F
LURAY*         MOCLDY   N/A N/A N/A W3        30.01S
NEW MARKET*    FAIR     N/A N/A N/A CALM      30.00S
STAUNTON*      FAIR      69  69  99 CALM      30.05S
WAYNESBORO*    CLOUDY    69  68  97 CALM      30.05S

$$

WVZ021-048>050-054>055-310600-
EASTERN WEST VIRGINIA PANHANDLE

CITY           SKY/WX    TMP DP  RH WIND       PRES   REMARKS
MARTINSBURG    CLOUDY    70  69  97 SE5       29.97F FOG
PETERSBURG*    FAIR      70  69  98 CALM      30.02F FOG

$$

VAZ036>039-050-310600-
CENTRAL FOOTHILLS

CITY           SKY/WX    TMP DP  RH WIND       PRES   REMARKS
CHARLOTTESVILL FOG       72  70  93 CALM      30.01R VSB 1/4
CULPEPER*      FOG       71  71 100 CALM      29.98F VSB 3/4
ORANGE*          N/A     72  72 100 CALM      30.00F
GORDONSVILLE*  FAIR      71  71 100 SW5       29.99F
WARRENTON*     FAIR      71  67  85 CALM      29.97F

$$

VAZ055>057-310600-
NORTH AND CENTRAL PIEDMONT

CITY           SKY/WX    TMP DP  RH WIND       PRES   REMARKS
FREDERICKSBRG* FAIR      73  73 100 CALM      29.97S
STAFFORD*      CLOUDY    71  70  96 NW3       30.02S

$$

NCZ024-NYZ072-PAZ021-071-VAZ022-071-310600-
OTHER REGIONAL OBSERVATIONS

CITY           SKY/WX    TMP DP  RH WIND       PRES   REMARKS
NEW YORK CITY  CLOUDY    74  72  93 S6        30.06R FOG
PHILADELPHIA   LGT RAIN  76  73  91 E9        29.99F
PITTSBURGH     CLOUDY    68  65  90 CALM      29.99S
ROANOKE        FAIR      76  70  82 SE5       30.05S
RICHMOND       MOCLDY    73  72  96 S5        29.99R
RALEIGH        MOCLDY    77  73  87 W5        30.01S

$$

ANZ530>537-310600-
MARINE OBSERVATIONS

STATION/POSITION TIME  TEMP    WIND        PRES
                       AIR SEA DIR/SP/G
                 (UTC) (F)     (DEG/KT/KT) (MB)
THOMAS PT LIGHT  0500   77 83  130/  4/  5 1016.0F
BALT KEY BRIDGE  0430   75     230/  4/  5 1015.0R
COVE POINT       0430   79     190/ 10/ 11 1014.9F
LEWISETTA        0430   77 85  180/  6/  7 1014.4F
SOLOMONS ISLAND  0430   79 85  150/  9/  9   N/A
PINEY POINT      0424          180/  7/  8   N/A

$$




USA.gov is the U.S. government's official web portal to all federal, state and local government web resources and services.